Time,TemperatureF,DewpointF,PressureIn,WindDirection,WindDirectionDegrees,WindSpeedMPH,WindSpeedGustMPH,Humidity,HourlyPrecipIn,Conditions,Clouds,dailyrainin,SoftwareType,DateUTC
2013-11-10 00:01:00,46.7,35.0,30.20,SSE,150,0.0,0.0,64,0.00,,,0.00,weatherlink.com 1.10,2013-11-10 05:01:00,
2013-11-10 00:16:00,46.2,35.0,30.20,SSE,150,0.0,0.0,64,0.00,,,0.00,weatherlink.com 1.10,2013-11-10 05:16:00,
2013-11-10 00:31:00,45.7,35.0,30.20,SSE,150,0.0,0.0,67,0.00,,,0.00,weatherlink.com 1.10,2013-11-10 05:31:00,
2013-11-10 00:46:00,45.2,35.0,30.19,SSE,150,0.0,0.0,67,0.00,,,0.00,weatherlink.com 1.10,2013-11-10 05:46:00,
2013-11-10 01:01:00,44.9,34.0,30.19,SSE,150,0.0,0.0,66,0.00,,,0.00,weatherlink.com 1.10,2013-11-10 06:01:00,
2013-11-10 01:16:00,44.6,35.0,30.19,SSE,150,0.0,0.0,68,0.00,,,0.00,weatherlink.com 1.10,2013-11-10 06:16:00,
2013-11-10 01:31:00,44.3,35.0,30.19,SSE,150,0.0,0.0,69,0.00,,,0.00,weatherlink.com 1.10,2013-11-10 06:31:00,
2013-11-10 01:46:00,43.9,35.0,30.19,SSE,150,0.0,0.0,71,0.00,,,0.00,weatherlink.com 1.10,2013-11-10 06:46:00,
2013-11-10 02:01:00,43.5,35.0,30.19,SSE,150,0.0,0.0,72,0.00,,,0.00,weatherlink.com 1.10,2013-11-10 07:01:00,
2013-11-10 02:16:00,43.2,35.0,30.19,SSE,150,0.0,0.0,73,0.00,,,0.00,weatherlink.com 1.10,2013-11-10 07:16:00,
2013-11-10 02:31:00,42.8,36.0,30.18,SSE,150,0.0,0.0,76,0.00,,,0.00,weatherlink.com 1.10,2013-11-10 07:31:00,
2013-11-10 02:46:00,42.3,35.0,30.18,SSE,150,0.0,0.0,76,0.00,,,0.00,weatherlink.com 1.10,2013-11-10 07:46:00,
2013-11-10 03:01:00,42.1,36.0,30.18,SSE,150,0.0,0.0,78,0.00,,,0.00,weatherlink.com 1.10,2013-11-10 08:01:00,
2013-11-10 03:16:00,41.6,36.0,30.17,SSE,150,0.0,0.0,80,0.00,,,0.00,weatherlink.com 1.10,2013-11-10 08:16:00,
2013-11-10 03:31:00,41.2,36.0,30.17,SSE,150,0.0,0.0,80,0.00,,,0.00,weatherlink.com 1.10,2013-11-10 08:31:00,
2013-11-10 03:46:00,40.9,36.0,30.17,SSE,150,0.0,0.0,82,0.00,,,0.00,weatherlink.com 1.10,2013-11-10 08:46:00,
2013-11-10 04:01:00,40.8,36.0,30.17,SSE,150,0.0,0.0,83,0.00,,,0.00,weatherlink.com 1.10,2013-11-10 09:01:00,
2013-11-10 04:16:00,40.5,36.0,30.17,SSE,150,0.0,0.0,84,0.00,,,0.00,weatherlink.com 1.10,2013-11-10 09:16:00,
2013-11-10 04:31:00,40.2,36.0,30.18,SSE,150,0.0,0.0,84,0.00,,,0.00,weatherlink.com 1.10,2013-11-10 09:31:00,
2013-11-10 04:46:00,40.1,36.0,30.17,SSE,150,0.0,0.0,85,0.00,,,0.00,weatherlink.com 1.10,2013-11-10 09:46:00,
2013-11-10 05:01:00,40.1,36.0,30.17,SSE,150,0.0,0.0,86,0.00,,,0.00,weatherlink.com 1.10,2013-11-10 10:01:00,
2013-11-10 05:16:00,40.1,36.0,30.17,SSE,150,0.0,0.0,86,0.00,,,0.00,weatherlink.com 1.10,2013-11-10 10:16:00,
2013-11-10 05:31:00,39.9,36.0,30.17,SSE,150,0.0,0.0,87,0.00,,,0.00,weatherlink.com 1.10,2013-11-10 10:31:00,
2013-11-10 05:46:00,39.6,36.0,30.18,SSE,150,0.0,0.0,88,0.00,,,0.00,weatherlink.com 1.10,2013-11-10 10:46:00,
2013-11-10 06:01:00,39.5,36.0,30.18,SSE,150,0.0,0.0,88,0.00,,,0.00,weatherlink.com 1.10,2013-11-10 11:01:00,
2013-11-10 06:16:00,39.6,36.0,30.18,SSE,150,0.0,0.0,88,0.00,,,0.00,weatherlink.com 1.10,2013-11-10 11:16:00,
2013-11-10 06:31:00,39.6,36.0,30.19,SSE,150,0.0,0.0,87,0.00,,,0.00,weatherlink.com 1.10,2013-11-10 11:31:00,
2013-11-10 06:46:00,39.5,36.0,30.20,SSE,150,0.0,0.0,88,0.00,,,0.00,weatherlink.com 1.10,2013-11-10 11:46:00,
2013-11-10 07:01:00,39.2,36.0,30.19,SSE,150,0.0,0.0,88,0.00,,,0.00,weatherlink.com 1.10,2013-11-10 12:01:00,
2013-11-10 07:16:00,38.9,36.0,30.20,SSE,150,0.0,0.0,89,0.00,,,0.00,weatherlink.com 1.10,2013-11-10 12:16:00,
2013-11-10 07:33:00,38.9,36.0,30.20,SSE,150,0.0,0.0,89,0.00,,,0.00,weatherlink.com 1.10,2013-11-10 12:33:00,
2013-11-10 07:46:00,38.9,36.0,30.21,SSE,150,0.0,0.0,90,0.00,,,0.00,weatherlink.com 1.10,2013-11-10 12:46:00,
2013-11-10 08:01:00,39.3,37.0,30.22,SSE,150,0.0,0.0,90,0.00,,,0.00,weatherlink.com 1.10,2013-11-10 13:01:00,
2013-11-10 08:16:00,41.5,39.0,30.22,SSE,150,0.0,0.0,91,0.00,,,0.00,weatherlink.com 1.10,2013-11-10 13:16:00,
2013-11-10 08:31:00,43.9,40.0,30.22,SSE,148,0.0,0.0,87,0.00,,,0.00,weatherlink.com 1.10,2013-11-10 13:31:00,
2013-11-10 08:46:00,46.2,39.0,30.21,SSE,148,0.0,0.0,77,0.00,,,0.00,weatherlink.com 1.10,2013-11-10 13:46:00,
2013-11-10 09:01:00,47.7,39.0,30.21,SSE,148,0.0,0.0,73,0.00,,,0.00,weatherlink.com 1.10,2013-11-10 14:01:00,
2013-11-10 09:17:00,50.1,40.0,30.21,SSE,148,0.0,0.0,68,0.00,,,0.00,weatherlink.com 1.10,2013-11-10 14:17:00,
2013-11-10 09:32:00,54.2,39.0,30.21,SSE,148,0.0,0.0,56,0.00,,,0.00,weatherlink.com 1.10,2013-11-10 14:32:00,
2013-11-10 09:47:00,57.6,38.0,30.21,SE,131,0.0,0.0,49,0.00,,,0.00,weatherlink.com 1.10,2013-11-10 14:47:00,
2013-11-10 10:02:00,59.3,36.0,30.21,ESE,112,0.0,0.0,42,0.00,,,0.00,weatherlink.com 1.10,2013-11-10 15:02:00,
2013-11-10 10:17:00,61.3,37.0,30.21,ESE,109,0.0,0.0,41,0.00,,,0.00,weatherlink.com 1.10,2013-11-10 15:17:00,
2013-11-10 10:32:00,61.8,32.0,30.21,East,80,0.0,2.0,33,0.00,,,0.00,weatherlink.com 1.10,2013-11-10 15:32:00,
2013-11-10 10:47:00,62.6,34.0,30.20,ENE,77,0.0,4.0,35,0.00,,,0.00,weatherlink.com 1.10,2013-11-10 15:47:00,
2013-11-10 11:02:00,63.9,36.0,30.20,ENE,62,0.0,3.0,35,0.00,,,0.00,weatherlink.com 1.10,2013-11-10 16:02:00,
2013-11-10 11:17:00,64.5,35.0,30.19,SSW,205,0.0,3.0,33,0.00,,,0.00,weatherlink.com 1.10,2013-11-10 16:17:00,
2013-11-10 11:32:00,66.0,34.0,30.19,WSW,257,0.0,2.0,30,0.00,,,0.00,weatherlink.com 1.10,2013-11-10 16:32:00,
2013-11-10 11:47:00,67.4,33.0,30.18,SW,216,2.0,4.0,28,0.00,,,0.00,weatherlink.com 1.10,2013-11-10 16:47:00,
2013-11-10 12:02:00,67.4,33.0,30.17,NW,305,0.0,2.0,28,0.00,,,0.00,weatherlink.com 1.10,2013-11-10 17:02:00,
2013-11-10 12:17:00,68.9,35.0,30.16,South,190,1.0,3.0,29,0.00,,,0.00,weatherlink.com 1.10,2013-11-10 17:17:00,
2013-11-10 12:33:00,69.3,36.0,30.16,East,84,0.0,3.0,29,0.00,,,0.00,weatherlink.com 1.10,2013-11-10 17:33:00,
2013-11-10 12:48:00,69.8,35.0,30.15,South,188,0.0,5.0,28,0.00,,,0.00,weatherlink.com 1.10,2013-11-10 17:48:00,
2013-11-10 13:03:00,70.8,36.0,30.14,SW,222,0.0,4.0,28,0.00,,,0.00,weatherlink.com 1.10,2013-11-10 18:03:00,
2013-11-10 13:18:00,70.6,35.0,30.13,WSW,252,0.0,6.0,27,0.00,,,0.00,weatherlink.com 1.10,2013-11-10 18:18:00,
2013-11-10 13:33:00,70.6,36.0,30.12,SSW,200,0.0,4.0,28,0.00,,,0.00,weatherlink.com 1.10,2013-11-10 18:33:00,
2013-11-10 13:48:00,70.4,36.0,30.12,South,190,0.0,3.0,28,0.00,,,0.00,weatherlink.com 1.10,2013-11-10 18:48:00,
2013-11-10 14:03:00,69.9,36.0,30.12,North,360,0.0,4.0,29,0.00,,,0.00,weatherlink.com 1.10,2013-11-10 19:03:00,
2013-11-10 14:18:00,70.1,36.0,30.11,WSW,257,0.0,2.0,29,0.00,,,0.00,weatherlink.com 1.10,2013-11-10 19:18:00,
2013-11-10 14:33:00,69.8,34.0,30.11,NE,45,0.0,3.0,27,0.00,,,0.00,weatherlink.com 1.10,2013-11-10 19:33:00,
2013-11-10 14:48:00,69.8,37.0,30.10,SSW,205,0.0,2.0,30,0.00,,,0.00,weatherlink.com 1.10,2013-11-10 19:48:00,
2013-11-10 15:03:00,69.6,35.0,30.10,WSW,256,0.0,0.0,28,0.00,,,0.00,weatherlink.com 1.10,2013-11-10 20:03:00,
2013-11-10 15:18:00,69.9,34.0,30.10,SSW,196,0.0,4.0,27,0.00,,,0.00,weatherlink.com 1.10,2013-11-10 20:18:00,
2013-11-10 15:33:00,70.1,34.0,30.09,SSW,197,1.0,3.0,27,0.00,,,0.00,weatherlink.com 1.10,2013-11-10 20:33:00,
2013-11-10 15:48:00,69.8,36.0,30.09,West,261,0.0,1.0,29,0.00,,,0.00,weatherlink.com 1.10,2013-11-10 20:48:00,
2013-11-10 16:03:00,68.9,34.0,30.10,East,82,0.0,2.0,28,0.00,,,0.00,weatherlink.com 1.10,2013-11-10 21:03:00,
2013-11-10 16:18:00,68.6,35.0,30.10,East,94,0.0,1.0,29,0.00,,,0.00,weatherlink.com 1.10,2013-11-10 21:18:00,
2013-11-10 16:33:00,67.8,36.0,30.10,East,94,0.0,0.0,31,0.00,,,0.00,weatherlink.com 1.10,2013-11-10 21:33:00,
2013-11-10 16:48:00,66.4,37.0,30.10,East,94,0.0,1.0,34,0.00,,,0.00,weatherlink.com 1.10,2013-11-10 21:48:00,
2013-11-10 17:03:00,65.2,39.0,30.11,East,94,0.0,0.0,38,0.00,,,0.00,weatherlink.com 1.10,2013-11-10 22:03:00,
2013-11-10 17:18:00,63.2,39.0,30.11,East,94,0.0,0.0,41,0.00,,,0.00,weatherlink.com 1.10,2013-11-10 22:18:00,
2013-11-10 17:33:00,61.5,41.0,30.11,East,94,0.0,0.0,47,0.00,,,0.00,weatherlink.com 1.10,2013-11-10 22:33:00,
2013-11-10 17:48:00,59.3,40.0,30.11,East,94,0.0,0.0,50,0.00,,,0.00,weatherlink.com 1.10,2013-11-10 22:48:00,
2013-11-10 18:03:00,57.8,41.0,30.13,East,94,0.0,0.0,53,0.00,,,0.00,weatherlink.com 1.10,2013-11-10 23:03:00,
2013-11-10 18:18:00,56.6,42.0,30.13,East,94,0.0,0.0,58,0.00,,,0.00,weatherlink.com 1.10,2013-11-10 23:18:00,
2013-11-10 18:33:00,55.1,42.0,30.13,East,94,0.0,0.0,61,0.00,,,0.00,weatherlink.com 1.10,2013-11-10 23:33:00,
2013-11-10 18:48:00,54.2,42.0,30.14,East,94,0.0,0.0,63,0.00,,,0.00,weatherlink.com 1.10,2013-11-10 23:48:00,
2013-11-10 19:03:00,53.3,42.0,30.15,East,94,0.0,0.0,65,0.00,,,0.00,weatherlink.com 1.10,2013-11-11 00:03:00,
2013-11-10 19:18:00,52.9,42.0,30.16,East,94,0.0,0.0,66,0.00,,,0.00,weatherlink.com 1.10,2013-11-11 00:18:00,
2013-11-10 19:33:00,52.2,41.0,30.16,East,94,0.0,0.0,67,0.00,,,0.00,weatherlink.com 1.10,2013-11-11 00:33:00,
2013-11-10 19:48:00,51.9,41.0,30.16,East,94,0.0,0.0,67,0.00,,,0.00,weatherlink.com 1.10,2013-11-11 00:48:00,
2013-11-10 20:03:00,51.9,40.0,30.16,East,94,0.0,0.0,63,0.00,,,0.00,weatherlink.com 1.10,2013-11-11 01:03:00,
2013-11-10 20:18:00,51.9,39.0,30.16,East,94,0.0,0.0,62,0.00,,,0.00,weatherlink.com 1.10,2013-11-11 01:18:00,
2013-11-10 20:33:00,52.2,37.0,30.16,East,82,0.0,1.0,57,0.00,,,0.00,weatherlink.com 1.10,2013-11-11 01:33:00,
2013-11-10 20:48:00,52.5,37.0,30.16,East,82,0.0,0.0,56,0.00,,,0.00,weatherlink.com 1.10,2013-11-11 01:48:00,
2013-11-10 21:03:00,52.0,37.0,30.16,East,82,0.0,0.0,58,0.00,,,0.00,weatherlink.com 1.10,2013-11-11 02:03:00,
2013-11-10 21:18:00,51.0,38.0,30.16,East,82,0.0,0.0,61,0.00,,,0.00,weatherlink.com 1.10,2013-11-11 02:18:00,
2013-11-10 21:33:00,50.2,37.0,30.17,East,82,0.0,0.0,62,0.00,,,0.00,weatherlink.com 1.10,2013-11-11 02:33:00,
2013-11-10 21:48:00,49.8,37.0,30.18,East,82,0.0,0.0,61,0.00,,,0.00,weatherlink.com 1.10,2013-11-11 02:48:00,
2013-11-10 22:18:00,49.4,36.0,30.18,East,82,0.0,0.0,61,0.00,,,0.00,weatherlink.com 1.10,2013-11-11 03:18:00,
2013-11-10 22:33:00,48.9,38.0,30.18,East,82,1.0,1.0,66,0.00,,,0.00,weatherlink.com 1.10,2013-11-11 03:33:00,
2013-11-10 22:48:00,48.2,37.0,30.18,East,82,0.0,0.0,66,0.00,,,0.00,weatherlink.com 1.10,2013-11-11 03:48:00,
2013-11-10 23:03:00,47.4,36.0,30.19,East,82,0.0,0.0,65,0.00,,,0.00,weatherlink.com 1.10,2013-11-11 04:03:00,
2013-11-10 23:18:00,46.5,36.0,30.20,East,82,0.0,0.0,68,0.00,,,0.00,weatherlink.com 1.10,2013-11-11 04:18:00,
2013-11-10 23:33:00,45.8,36.0,30.20,East,82,0.0,0.0,68,0.00,,,0.00,weatherlink.com 1.10,2013-11-11 04:33:00,
2013-11-10 23:48:00,46.1,34.0,30.20,East,82,0.0,1.0,64,0.00,,,0.00,weatherlink.com 1.10,2013-11-11 04:48:00,